Temp
62 62 62 62 62 62 62 62 62 62 62 62 62 61 62 62 61 57 53 68 68 77 78 74 73 72 72 68 73 76 60 58 63 63 65 71 68 72 71 69 77 78 73 73 73
62 62 61 61 62 62 62 62 62 62 62 61 62 62 61 62 53 52 67 74 76 77 72 69 66 69 62 66 68 65 60 62 69 72 68 70 69 69 69 69 69 69 72 73 72
62 61 61 61 61 61 61 61 61 61 61 61 61 62 61 58 50 65 75 76 77 78 74 73 71 70 61 65 66 65 62 68 73 74 74 70 68 69 67 66 70 66 68 70 70
61 61 60 61 61 61 61 61 61 60 60 61 61 62 61 52 54 71 76 77 78 74 74 71 67 62 59 60 67 60 71 72 73 75 71 69 72 68 70 69 74 73 72 71 69
60 60 60 60 60 60 60 60 60 60 60 61 62 62 54 51 61 75 78 78 73 72 71 68 64 62 59 62 66 65 72 75 75 72 71 74 70 71 69 74 75 75 73 71 70
60 60 60 60 60 60 60 60 59 59 60 61 62 61 50 52 73 76 74 72 71 69 68 69 67 68 63 64 65 72 74 72 73 71 71 69 69 71 73 75 74 73 71 71 71
59 59 59 59 60 60 59 59 59 59 60 61 63 61 54 62 75 74 72 67 70 70 66 68 71 67 65 61 70 69 66 69 67 68 68 71 64 65 73 75 71 71 72 72 73
59 59 59 59 59 59 58 57 58 59 60 61 64 56 52 73 72 72 71 68 71 66 68 70 72 67 63 68 68 61 60 56 61 67 69 68 58 68 71 71 69 71 73 73 73
58 58 58 58 58 58 57 56 59 62 62 63 54 50 55 73 69 72 71 70 68 65 68 81 71 62 64 58 54 55 50 54 60 68 67 65 60 67 70 71 68 70 72 73 73
58 58 58 58 57 56 56 56 62 62 63 65 65 51 63 66 70 71 71 74 68 67 67 64 59 55 53 52 45 49 51 51 56 64 65 61 60 65 67 70 69 71 73 73 73
58 58 57 57 56 56 53 50 53 53 54 56 57 60 66 71 71 73 74 72 69 63 54 58 52 48 54 58 59 58 56 55 59 66 63 62 62 62 65 67 67 69 72 73 74
58 57 57 56 56 55 51 53 57 58 50 61 63 64 68 65 65 70 75 67 63 56 58 54 48 59 63 62 60 57 54 53 65 68 62 59 58 60 63 65 68 69 71 73 75
57 57 56 56 54 50 51 58 60 56 49 58 61 63 65 67 64 65 71 66 61 57 56 52 59 66 64 60 59 53 51 53 58 66 62 58 55 56 62 65 68 70 73 73 75
57 57 56 54 53 51 56 58 58 58 43 52 55 66 67 66 60 76 73 69 61 58 58 56 64 65 60 59 59 44 62 63 60 55 49 57 46 51 58 60 64 65 67 69 72
57 56 55 54 45 54 62 55 55 60 35 59 58 70 63 62 65 65 71 68 60 60 58 56 60 59 57 60 63 57 64 60 59 52 48 52 49 50 56 57 61 65 67 68 70
56 55 54 49 45 54 56 55 60 45 38 55 62 58 60 59 61 66 66 67 65 60 58 58 63 61 60 65 65 66 58 53 49 47 42 49 49 49 53 57 64 67 69 70 70
55 53 52 54 56 56 60 57 43 36 54 52 51 56 55 54 59 60 55 51 47 46 44 54 55 59 62 56 58 57 49 39 39 39 40 42 49 52 59 63 64 66 69 72 73
53 51 51 56 54 56 60 52 36 48 46 54 54 54 51 54 52 53 50 46 52 47 43 43 44 54 61 53 51 49 48 41 35 35 41 45 45 53 62 64 66 67 69 72 72
52 50 52 58 58 55 56 42 40 45 53 52 50 48 47 54 53 50 46 45 49 47 42 42 43 58 60 59 55 49 45 46 40 36 41 44 51 59 62 63 64 65 67 68 71
48 51 57 62 59 56 50 42 46 56 57 55 45 47 42 48 50 45 45 52 50 52 46 42 40 48 55 58 57 52 50 44 41 36 35 41 42 46 53 57 61 62 62 65 68
49 54 62 58 59 54 40 42 51 57 58 52 48 47 44 42 46 44 43 52 54 53 50 39 42 45 49 44 42 45 42 40 40 38 36 36 40 53 52 55 57 61 64 65 65
49 49 62 60 49 39 40 46 52 53 55 55 53 50 46 43 40 43 44 47 55 52 46 44 38 34 37 49 51 46 41 37 38 36 35 37 41 57 56 58 60 61 63 66 67
47 45 58 58 41 38 43 48 51 49 49 50 48 48 44 39 38 43 48 55 55 53 46 46 36 32 35 42 45 43 45 36 35 34 33 37 41 58 56 56 58 57 60 65 66
48 44 49 47 40 41 39 42 44 53 49 49 46 47 43 39 39 38 43 52 53 53 57 49 34 35 33 35 39 39 44 44 37 34 34 37 42 49 50 51 53 54 58 63 65
45 41 42 37 41 40 40 43 43 42 48 48 45 44 39 34 35 36 40 44 51 51 47 42 33 34 36 41 42 42 44 44 39 40 37 42 43 46 48 50 52 54 56 59 60
45 44 42 37 40 40 40 37 42 44 44 42 42 44 42 35 35 34 36 35 36 44 40 38 33 35 36 42 41 39 43 44 44 45 43 44 43 48 51 53 52 52 53 55 59
45 45 46 41 38 37 38 41 44 45 48 49 46 42 40 41 43 40 41 40 37 35 36 34 31 29 26 35 37 33 38 42 44 44 43 40 41 47 46 49 50 50 52 55 57
MSLP
1017.03 1016.71 1016.34 1015.92 1015.51 1015.11 1014.77 1014.45 1014.15 1013.98 1013.71 1013.42 1013.13 1013.03 1012.86 1012.83 1012.74 1012.85 1011.85 1009.08 1009.05 1008.99 1009.36 1010.07 1010.64 1010.81 1011.13 1011.32 1011.09 1010.90 1011.07 1010.65 1010.20 1010.42 1010.53 1010.53 1010.81 1011.21 1011.68 1011.61 1011.10 1011.20 1012.08 1013.25 1014.43
1016.88 1016.53 1016.19 1015.83 1015.46 1015.03 1014.59 1014.27 1013.95 1013.71 1013.56 1013.31 1012.97 1012.81 1012.79 1012.67 1012.75 1011.79 1008.58 1008.40 1008.54 1008.69 1009.39 1009.98 1010.75 1011.00 1011.44 1011.34 1011.09 1010.97 1010.88 1010.23 1009.71 1009.54 1009.77 1010.32 1010.63 1010.93 1011.25 1011.43 1011.83 1012.03 1012.84 1013.89 1014.67
1016.59 1016.27 1015.97 1015.62 1015.26 1014.88 1014.53 1014.09 1013.75 1013.51 1013.30 1013.11 1012.90 1012.60 1012.61 1012.57 1012.13 1008.66 1007.25 1008.01 1008.39 1008.65 1009.19 1009.73 1010.46 1010.89 1011.35 1011.29 1011.09 1010.85 1010.51 1009.85 1009.36 1009.22 1009.42 1009.92 1010.39 1010.82 1011.10 1011.59 1011.62 1012.35 1013.22 1014.18 1014.84
1016.56 1016.13 1015.72 1015.36 1015.03 1014.63 1014.27 1013.96 1013.58 1013.32 1013.08 1012.83 1012.72 1012.54 1012.46 1012.55 1010.47 1007.48 1007.30 1007.89 1008.40 1008.78 1009.25 1009.91 1010.70 1011.12 1011.16 1011.16 1010.74 1010.70 1009.93 1009.47 1009.25 1009.23 1009.61 1010.05 1010.32 1010.84 1011.00 1011.44 1011.51 1012.31 1013.38 1014.26 1014.92
1016.45 1016.07 1015.58 1015.09 1014.75 1014.39 1014.00 1013.66 1013.37 1013.07 1012.87 1012.65 1012.41 1012.44 1012.49 1011.56 1008.97 1007.37 1007.61 1008.06 1008.72 1009.15 1009.35 1009.88 1010.48 1010.93 1010.87 1010.71 1010.53 1010.44 1009.68 1009.09 1008.93 1009.26 1009.53 1009.86 1010.29 1010.50 1010.86 1011.28 1011.73 1012.64 1013.51 1014.39 1014.95
1016.27 1015.85 1015.38 1014.95 1014.45 1014.05 1013.69 1013.33 1012.99 1012.77 1012.59 1012.42 1012.30 1012.37 1012.25 1010.16 1007.36 1007.45 1007.79 1008.49 1008.86 1009.27 1009.59 1009.74 1010.09 1010.13 1010.43 1010.29 1010.17 1009.63 1009.37 1008.91 1008.54 1009.00 1009.57 1009.93 1010.44 1010.43 1010.53 1011.10 1011.95 1012.66 1013.42 1014.17 1014.67
1016.06 1015.58 1015.10 1014.68 1014.20 1013.70 1013.25 1012.94 1012.60 1012.33 1012.20 1012.20 1012.13 1012.32 1011.67 1008.72 1007.52 1007.68 1008.07 1008.60 1008.86 1009.10 1009.70 1009.70 1009.72 1009.91 1010.04 1009.96 1009.66 1009.33 1009.29 1008.64 1008.66 1008.81 1009.72 1010.09 1010.92 1010.37 1010.44 1010.77 1011.56 1012.39 1013.12 1013.79 1014.40
1015.92 1015.35 1014.86 1014.39 1013.94 1013.44 1012.86 1012.54 1011.95 1011.63 1011.75 1011.88 1011.97 1012.21 1010.34 1007.87 1007.74 1008.17 1008.33 1008.85 1009.13 1009.41 1009.52 1009.57 1009.80 1009.96 1010.05 1009.88 1009.64 1009.64 1009.56 1009.34 1009.35 1009.38 1009.95 1010.05 1010.42 1010.21 1010.70 1010.87 1011.36 1012.11 1012.66 1013.35 1013.91
1015.60 1015.01 1014.52 1014.02 1013.63 1013.17 1012.35 1012.06 1011.09 1010.58 1011.28 1011.52 1012.08 1011.92 1009.29 1007.68 1007.91 1007.73 1007.88 1008.49 1009.33 1009.73 1009.78 1009.63 1009.96 1010.33 1010.32 1010.41 1010.51 1010.44 1010.23 1009.76 1009.77 1009.73 1010.07 1010.45 1010.29 1010.41 1010.93 1011.25 1011.43 1011.84 1012.33 1012.83 1013.68
1015.32 1014.67 1014.02 1013.65 1013.23 1012.84 1012.05 1011.82 1011.30 1010.84 1011.45 1011.65 1011.53 1011.59 1008.55 1007.27 1006.77 1007.15 1007.83 1008.14 1009.02 1009.83 1010.00 1010.16 1010.63 1010.80 1011.09 1011.05 1011.06 1010.74 1010.49 1010.10 1009.83 1009.91 1010.01 1010.51 1010.21 1010.76 1010.92 1011.21 1011.33 1011.70 1012.25 1012.73 1013.20
1014.90 1014.28 1013.54 1013.17 1012.87 1012.59 1012.13 1011.93 1011.95 1011.29 1011.00 1009.95 1009.75 1009.22 1007.80 1006.81 1006.45 1006.60 1007.20 1008.11 1008.71 1009.52 1010.19 1010.49 1011.05 1010.87 1010.93 1010.77 1010.42 1010.31 1010.37 1010.34 1009.88 1009.63 1009.92 1010.05 1010.04 1010.81 1011.18 1011.66 1011.77 1011.81 1012.13 1012.49 1012.72
1014.46 1013.83 1013.25 1012.59 1012.24 1011.97 1011.87 1011.50 1010.49 1010.23 1009.93 1008.87 1008.81 1008.28 1007.52 1006.91 1006.58 1006.41 1006.60 1007.65 1008.42 1009.53 1010.11 1010.81 1010.70 1010.47 1010.38 1010.49 1010.44 1010.35 1010.20 1010.32 1009.84 1009.69 1009.93 1009.95 1010.48 1010.97 1011.13 1011.23 1011.38 1011.38 1011.80 1012.14 1012.60
1014.12 1013.52 1012.90 1012.15 1011.83 1011.85 1011.12 1010.04 1009.76 1009.75 1009.77 1008.45 1007.95 1007.31 1006.75 1006.78 1006.45 1006.25 1006.44 1007.12 1008.18 1009.31 1009.88 1010.11 1009.75 1009.84 1010.07 1010.25 1010.31 1010.30 1010.35 1010.24 1010.24 1009.95 1010.19 1010.53 1011.01 1011.46 1011.45 1011.30 1011.36 1011.51 1011.77 1011.90 1012.12
1013.71 1013.23 1012.62 1011.93 1011.83 1011.34 1010.47 1009.54 1009.24 1009.11 1009.48 1008.22 1007.32 1006.03 1006.15 1006.27 1006.24 1005.80 1006.11 1006.82 1007.82 1008.72 1009.59 1009.59 1009.19 1009.33 1009.61 1009.75 1009.90 1010.19 1010.06 1010.17 1010.60 1010.88 1011.07 1011.08 1011.82 1011.78 1011.69 1011.54 1011.41 1011.42 1011.45 1011.58 1011.81
1013.35 1012.93 1012.49 1012.49 1012.12 1011.17 1009.67 1009.28 1009.02 1008.93 1008.67 1007.48 1006.46 1005.36 1005.76 1006.35 1006.21 1006.25 1006.15 1006.52 1007.67 1008.41 1009.15 1009.23 1009.03 1009.16 1009.30 1009.29 1009.49 1009.85 1009.95 1010.43 1010.85 1011.52 1011.81 1011.83 1012.25 1011.97 1011.81 1011.77 1011.00 1010.86 1011.17 1011.15 1011.41
1012.95 1012.50 1012.26 1012.44 1012.05 1010.14 1009.32 1009.09 1009.06 1009.72 1008.90 1007.47 1006.41 1006.02 1006.26 1006.67 1006.63 1006.75 1006.86 1007.18 1007.87 1008.51 1008.97 1009.13 1008.76 1008.89 1008.80 1008.78 1009.07 1009.54 1010.65 1011.55 1012.23 1012.75 1013.15 1012.31 1012.42 1012.19 1012.06 1010.97 1010.03 1010.41 1010.45 1010.76 1010.89
1012.42 1011.98 1012.21 1011.76 1010.92 1009.80 1009.19 1009.29 1010.20 1010.11 1009.48 1008.88 1008.05 1007.32 1007.44 1007.95 1008.13 1008.34 1009.41 1009.92 1010.07 1010.23 1010.33 1010.07 1010.06 1009.59 1009.25 1009.29 1009.59 1010.16 1011.63 1013.13 1014.14 1014.25 1014.01 1012.92 1012.61 1012.06 1011.41 1010.51 1009.95 1009.58 1009.78 1010.04 1010.26
1011.93 1011.48 1011.37 1010.58 1009.87 1009.78 1009.60 1010.15 1011.03 1011.08 1010.45 1009.70 1009.21 1008.84 1009.23 1009.41 1010.34 1010.64 1011.00 1011.76 1011.60 1011.63 1012.11 1011.85 1011.59 1010.77 1010.19 1010.18 1010.28 1010.99 1011.75 1013.14 1014.23 1015.01 1014.37 1013.42 1012.53 1012.07 1011.38 1010.63 1009.51 1009.42 1009.58 1009.79 1010.06
1011.39 1011.19 1010.99 1009.81 1009.55 1009.73 1010.03 1011.15 1012.33 1011.94 1011.24 1010.70 1010.27 1010.45 1010.93 1010.72 1011.00 1011.95 1013.09 1013.57 1013.27 1012.91 1012.86 1013.09 1012.91 1011.92 1011.32 1011.27 1011.39 1012.00 1012.74 1013.55 1014.75 1015.69 1015.09 1014.32 1012.78 1012.11 1011.80 1011.15 1010.80 1010.48 1010.21 1010.03 1009.83
1012.16 1011.60 1010.65 1009.24 1009.37 1009.70 1010.72 1012.38 1012.63 1012.23 1011.59 1011.20 1011.67 1012.05 1012.59 1012.62 1012.59 1013.25 1014.29 1014.70 1014.25 1013.75 1013.34 1013.92 1014.15 1013.51 1012.89 1012.31 1012.43 1012.67 1013.89 1014.64 1015.41 1016.55 1016.42 1015.42 1014.52 1014.19 1013.41 1012.94 1012.29 1011.62 1011.39 1010.84 1010.25
1012.45 1011.92 1010.27 1009.61 1009.78 1010.64 1012.75 1013.36 1013.20 1012.67 1012.06 1012.20 1012.70 1013.22 1014.08 1014.21 1014.29 1014.89 1015.83 1015.29 1014.93 1014.42 1014.18 1014.61 1014.84 1015.26 1014.61 1015.59 1015.36 1014.70 1015.32 1016.15 1016.64 1017.11 1017.06 1016.61 1016.20 1015.50 1015.11 1014.67 1013.85 1013.00 1012.11 1011.47 1010.70
1012.92 1012.69 1010.78 1009.96 1011.59 1013.73 1014.61 1014.34 1014.11 1013.76 1013.21 1013.28 1013.69 1014.41 1015.11 1015.45 1016.01 1016.26 1016.54 1016.20 1015.59 1015.25 1015.59 1015.95 1016.68 1017.57 1017.65 1017.16 1016.69 1016.57 1017.26 1017.68 1017.89 1018.66 1017.97 1017.03 1016.74 1015.84 1015.53 1015.31 1015.03 1014.13 1013.37 1012.00 1010.89
1014.08 1013.89 1011.48 1011.19 1014.07 1015.48 1015.47 1015.39 1015.18 1014.74 1014.81 1014.71 1015.18 1015.66 1016.01 1016.84 1017.39 1017.36 1017.15 1016.83 1016.19 1016.00 1016.43 1016.54 1018.01 1018.83 1019.00 1018.41 1017.91 1018.21 1018.26 1018.44 1018.74 1018.78 1018.82 1018.13 1017.38 1016.29 1016.24 1015.87 1015.67 1015.37 1014.35 1013.15 1011.87
1014.95 1015.33 1014.60 1014.68 1016.21 1016.48 1016.69 1016.70 1016.24 1015.77 1015.86 1016.04 1016.53 1016.54 1016.96 1017.85 1017.95 1018.41 1018.25 1017.75 1017.37 1017.14 1017.16 1017.31 1019.15 1019.19 1019.27 1019.28 1019.41 1019.55 1019.21 1018.81 1019.01 1019.27 1019.36 1018.79 1018.00 1017.41 1017.07 1017.15 1016.75 1016.17 1015.51 1014.23 1013.09
1015.83 1017.51 1017.59 1017.69 1017.76 1017.72 1017.42 1017.59 1017.24 1017.03 1016.74 1016.75 1017.11 1017.69 1018.01 1018.78 1019.05 1019.37 1019.16 1018.83 1018.39 1018.30 1018.33 1018.89 1020.36 1020.39 1020.41 1020.18 1019.94 1019.93 1019.74 1019.49 1019.28 1019.03 1019.08 1018.81 1018.96 1018.62 1018.55 1018.17 1018.00 1017.57 1016.44 1015.27 1014.21
1016.91 1017.64 1018.01 1018.54 1018.45 1018.23 1018.25 1018.34 1017.91 1017.76 1017.66 1017.84 1018.11 1018.47 1018.44 1019.23 1019.65 1019.81 1019.86 1019.94 1020.03 1019.83 1020.11 1020.61 1021.51 1021.54 1021.75 1021.20 1020.79 1020.41 1020.06 1019.85 1019.61 1019.31 1019.18 1018.94 1019.65 1019.65 1019.16 1018.93 1018.42 1018.38 1017.65 1016.65 1015.76
1017.43 1017.56 1017.60 1018.99 1018.89 1018.73 1018.68 1018.33 1018.18 1017.98 1018.27 1018.25 1018.42 1018.77 1019.19 1019.52 1019.70 1019.99 1020.25 1020.71 1020.91 1021.20 1021.65 1021.94 1022.43 1022.97 1022.93 1022.21 1021.59 1021.33 1020.55 1020.16 1019.95 1019.95 1020.09 1020.31 1020.57 1020.54 1019.78 1019.60 1019.42 1018.98 1018.66 1017.95 1017.02
Wind_Speed
17 17 17 17 17 17 18 17 16 16 14 12 11 10 8 7 7 2 7 11 9 9 7 9 4 3 2 2 3 1 2 2 1 5 7 8 7 3 1 2 2 4 7 16 16
16 17 17 17 18 18 17 17 16 16 15 13 10 10 6 3 1 8 12 9 11 14 9 12 6 6 2 3 2 2 1 4 2 3 3 7 6 6 2 4 7 14 19 19 17
16 16 17 17 17 17 18 17 17 16 14 13 11 8 4 0 1 8 10 13 13 9 6 6 7 5 3 3 3 4 2 4 2 4 7 5 8 5 7 1 3 17 19 19 17
18 17 17 17 17 17 17 17 16 16 14 12 10 6 2 2 2 4 15 16 12 6 7 8 6 5 4 5 4 2 9 6 5 5 6 6 9 3 5 4 12 18 19 17 17
18 18 18 18 17 18 18 17 16 15 14 11 8 3 1 1 8 4 17 13 6 6 7 6 7 6 5 4 3 4 6 7 8 10 5 8 7 2 7 8 15 18 18 16 14
19 19 19 18 18 18 18 19 17 15 13 10 6 2 2 3 1 11 11 9 6 5 5 5 8 5 5 3 5 2 6 10 7 9 6 9 4 1 6 11 15 17 17 15 14
20 20 20 19 18 18 19 20 19 16 12 9 3 3 0 9 2 9 10 5 6 7 6 3 3 4 1 2 2 3 2 5 6 5 6 10 2 6 4 12 14 19 17 16 14
20 20 21 21 20 19 20 22 21 17 10 6 5 1 7 2 5 8 4 4 5 2 2 4 2 2 1 4 5 3 4 2 1 3 7 0 4 5 8 13 16 19 17 17 15
21 21 22 22 20 19 19 22 20 4 8 9 4 2 8 4 5 8 6 8 7 3 4 2 3 2 1 3 5 6 3 2 4 6 6 2 5 6 7 10 15 16 18 16 14
20 20 20 21 19 19 18 16 2 11 8 5 2 1 5 4 3 6 5 12 6 6 3 4 2 2 3 4 5 3 5 2 4 5 4 5 11 5 10 10 13 16 17 16 16
21 21 21 20 19 18 8 4 3 4 2 7 5 4 4 7 2 4 7 6 5 5 5 3 4 6 6 6 4 3 5 3 2 4 3 7 10 4 9 6 11 12 13 18 16
22 21 22 21 19 16 5 3 4 4 5 7 5 6 6 2 4 3 8 7 5 5 5 5 4 8 7 5 4 3 1 1 3 2 4 3 3 4 6 6 10 15 13 15 14
22 22 21 21 22 3 2 4 2 4 3 6 5 4 5 7 5 4 7 5 7 6 5 7 7 7 6 5 5 2 4 2 3 4 4 2 4 2 1 2 4 7 12 8 14
22 21 21 24 3 2 4 1 6 5 6 3 3 7 5 2 2 3 4 7 2 9 9 5 2 7 4 4 5 1 7 5 3 3 2 2 3 2 3 4 4 5 8 8 8
22 22 18 10 4 1 4 6 5 5 5 2 3 1 2 6 6 3 1 5 7 6 6 6 7 5 3 5 7 7 4 6 4 3 3 3 5 5 2 7 14 13 10 9 7
23 21 15 1 0 7 8 7 4 7 3 5 3 3 5 4 2 3 5 9 1 5 3 2 0 3 6 4 8 4 6 8 6 4 2 5 6 5 5 7 12 11 14 12 10
24 19 4 1 2 6 5 5 6 5 5 7 4 3 5 5 5 6 6 9 4 6 2 5 4 5 3 4 3 6 7 2 3 3 6 3 4 6 7 9 11 12 14 16 15
25 11 8 5 5 5 2 6 9 3 3 4 5 4 6 4 8 8 4 6 7 6 5 4 4 8 8 3 4 3 8 7 6 6 3 4 4 1 5 9 8 6 6 11 12
19 2 1 5 4 3 6 7 1 3 5 6 2 7 7 6 6 7 5 5 5 6 6 5 2 6 5 7 3 3 5 3 9 4 5 2 3 3 9 16 15 13 4 4 10
3 3 4 9 3 4 7 5 3 4 6 3 5 3 4 8 4 6 6 5 7 7 1 1 5 3 6 5 7 8 1 3 4 5 3 3 3 4 13 16 16 16 9 8 6
3 5 4 7 3 7 6 3 4 7 3 6 4 4 4 3 5 5 6 2 10 7 8 2 4 5 5 8 5 6 6 6 6 4 7 5 3 5 6 7 11 14 15 11 9
3 4 5 5 7 2 4 4 7 6 7 7 4 6 4 6 7 5 4 4 13 2 4 4 5 5 3 5 5 5 4 3 6 3 1 3 3 4 8 10 9 14 16 15 12
3 2 5 4 5 4 4 5 8 11 7 6 7 6 5 4 6 3 4 6 13 6 2 1 3 5 4 7 5 7 5 4 4 3 1 5 5 4 8 13 14 14 18 13 14
4 5 7 7 2 5 3 5 4 7 5 5 4 4 5 7 8 4 3 5 8 7 13 7 4 3 7 5 3 4 3 3 5 4 3 5 2 7 13 12 15 17 18 15 15
5 0 2 4 6 5 4 4 4 6 5 8 6 7 4 4 4 4 4 6 6 12 6 5 4 3 4 4 3 3 3 2 2 4 4 4 3 4 4 7 9 11 16 18 19
4 3 4 2 3 5 6 4 4 4 5 5 6 6 7 5 2 2 2 3 2 7 5 5 3 2 3 5 3 3 5 6 5 4 6 6 3 6 3 5 13 12 15 16 17
1 2 6 5 3 4 2 2 3 2 7 5 2 3 4 1 3 2 2 3 2 1 2 3 5 3 3 2 3 4 2 1 1 3 2 4 3 5 8 10 9 10 12 15 17
Wind_Direction
343 341 341 340 339 338 337 338 337 337 333 330 327 323 314 309 307 179 239 218 183 178 148 118 94 108 89 170 222 218 360 347 173 147 167 183 180 95 173 360 216 130 130 124 134
340 339 339 338 336 335 335 333 334 335 334 327 322 323 315 306 250 246 243 210 214 165 137 143 148 139 141 191 237 128 211 213 263 152 187 138 164 131 105 351 72 87 109 127 134
337 337 336 335 334 332 330 329 330 331 331 327 317 323 303 128 297 245 186 191 184 150 124 120 125 134 146 155 197 180 235 214 164 151 148 143 146 134 138 213 161 143 140 143 144
334 335 333 331 330 329 327 325 325 326 327 325 318 318 272 177 151 352 152 161 165 135 114 118 123 129 150 186 200 191 229 247 165 153 141 168 129 129 177 111 133 145 143 147 152
333 331 328 329 328 326 324 321 321 320 319 317 311 296 262 284 252 114 144 149 116 132 145 132 137 139 179 199 167 208 274 247 232 167 143 142 161 175 209 108 130 145 145 154 159
331 328 326 326 327 325 322 318 316 313 309 304 299 156 278 258 133 145 136 120 135 123 158 144 169 181 153 215 169 214 221 257 256 187 145 137 146 201 181 139 137 157 153 162 169
330 328 325 324 325 324 322 315 309 303 295 287 261 208 274 232 57 140 131 149 161 151 145 221 133 161 139 248 265 259 292 334 11 108 145 120 69 232 140 145 147 165 161 169 172
329 327 323 323 323 323 323 315 305 289 266 244 181 226 244 266 122 130 122 95 105 65 89 189 157 63 204 300 11 44 48 66 279 119 152 159 244 198 157 163 156 164 173 172 176
327 325 321 320 321 323 328 321 306 239 171 160 118 136 270 110 168 187 163 141 117 78 290 210 107 184 343 83 20 10 145 116 98 172 132 192 253 148 163 174 164 172 179 177 177
321 318 317 317 321 326 330 317 13 95 118 161 237 348 261 176 197 146 169 137 135 119 120 111 81 116 49 86 190 187 114 23 115 196 166 185 259 130 165 201 174 179 181 178 188
320 317 318 319 322 326 336 30 23 35 242 188 187 257 284 295 247 162 153 136 109 107 128 194 107 193 188 190 168 135 115 118 255 236 199 231 248 167 161 181 184 191 190 189 192
318 318 318 321 323 320 135 146 148 172 316 225 250 266 268 220 43 141 118 135 125 145 122 60 204 206 193 197 167 141 93 183 279 175 184 320 315 123 150 190 196 192 194 191 190
318 318 321 325 320 106 207 208 83 154 123 294 195 195 232 148 179 227 128 146 136 130 174 146 203 166 178 166 171 151 160 201 184 340 35 107 353 105 54 44 115 202 202 195 195
318 320 329 330 294 331 250 319 306 198 66 276 250 264 149 171 119 179 169 145 115 166 155 185 157 160 159 181 130 209 203 187 183 79 189 78 277 321 195 214 244 214 186 189 192
321 325 329 324 291 280 314 337 286 61 80 145 180 127 117 139 162 28 349 52 148 149 118 227 151 150 159 197 166 212 137 172 173 135 63 330 80 266 172 229 230 216 206 198 198
325 323 328 131 190 249 305 315 48 45 68 351 18 142 90 26 22 74 52 37 82 90 65 160 319 106 200 202 186 109 84 37 43 89 62 231 125 282 192 232 245 216 209 204 203
327 320 288 240 252 312 310 45 48 77 326 347 346 31 89 28 48 45 60 42 62 92 65 21 359 323 48 94 54 94 81 19 27 43 208 344 89 230 295 279 233 221 212 204 210
327 314 191 217 250 322 36 60 64 323 327 321 10 44 76 34 18 9 55 40 18 47 80 117 21 356 338 52 163 123 149 153 162 168 211 15 196 200 309 326 355 196 193 186 201
321 320 294 270 221 137 74 52 101 326 307 336 352 57 19 8 105 79 47 20 21 17 119 122 62 314 54 25 38 158 66 171 104 12 84 241 297 330 359 14 10 22 37 235 202
355 356 302 324 150 64 72 106 71 348 324 16 87 43 72 350 69 73 25 347 334 27 187 109 90 9 307 18 20 93 108 74 13 120 141 310 64 306 347 348 347 357 352 327 301
28 38 275 344 46 46 85 74 47 335 43 37 42 68 89 23 42 69 359 2 359 329 52 55 84 311 35 12 286 1 18 38 107 98 147 153 279 18 321 324 337 338 341 330 304
70 30 321 8 48 23 43 351 22 348 5 45 79 56 60 33 44 78 90 8 336 318 46 349 111 70 61 298 16 70 75 87 114 220 30 114 229 59 352 348 355 347 344 334 323
76 279 326 52 85 18 14 22 47 15 20 29 34 37 41 59 95 59 72 337 359 42 68 64 23 92 23 333 7 47 344 111 96 83 169 128 228 18 10 8 4 356 350 3 359
70 27 337 39 55 97 62 14 35 15 52 52 35 67 59 37 18 91 65 4 350 14 42 77 78 137 170 148 133 78 358 18 97 93 177 209 260 346 355 14 2 355 349 345 3
32 62 182 355 4 51 62 22 31 7 13 26 36 45 66 71 47 66 23 359 359 358 31 79 104 69 72 91 94 126 176 197 183 190 170 167 147 317 3 354 17 357 357 1 359
94 101 26 46 347 37 14 7 44 12 29 3 71 32 43 79 77 128 67 23 25 350 35 6 117 101 84 52 75 198 234 231 245 269 280 289 99 317 347 333 26 11 1 3 1
341 37 101 309 15 74 329 35 47 69 34 51 84 86 56 147 194 218 186 91 88 63 43 59 120 89 159 360 34 51 315 247 245 56 318 239 32 8 342 354 353 8 7 359 354